Pine Bluffs Muni, Pine Bluffs, WY

3:56 AM MDT on October 19, 2017 (GMT -0600)
Pine Bluffs Muni, Pine Bluffs

Weather History for K82V - December, 2013

Change the Weather History Date:

Wednesday, December 4, 2013

  Actual Average (KCYS) Record (KCYS)
Temperature  
Mean Temperature 0 °F -  
Max Temperature 8 °F 44 °F 64 °F (1975)
Min Temperature -7 °F 21 °F -13 °F (2013)
Degree Days  
Heating Degree Days 64    
Moisture  
Dew Point -4 °F    
Average Humidity 79    
Maximum Humidity 85    
Minimum Humidity 71    
Precipitation  
Precipitation 0.00 in - - ()
Sea Level Pressure  
Sea Level Pressure 29.83 in    
Wind  
Wind Speed 19 mph (NNW)    
Max Wind Speed 22 mph    
Max Gust Speed 30 mph    
Visibility 6 miles    
Events Snow    
Averages and records for this station are not official NWS values.
T = Trace of Precipitation, MM = Missing Value Source: NWS Daily Summary

Daily Weather History Graph

Daily Weather History Graph

Search for Another Location

Airport or City:

Trip Planner

Search our weather history database for the weather conditions in past years. The results will help you decide how hot, cold, wet, or windy it might be!

Date:

Astronomy

Dec. 04, 2013 Rise Set
Actual Time 7:05 AM MST 4:27 PM MST
Civil Twilight 6:34 AM MST 4:58 PM MST
Nautical Twilight 6:00 AM MST 5:33 PM MST
Astronomical Twilight 5:27 AM MST 6:06 PM MST
Moon 8:35 AM MST (12/4) 6:41 PM MST (12/4)
Length of Visible Light 10h 23m
Length of Day
9h 22m
Waxing Crescent, 5% of the Moon is Illuminated
Dec 4
Waxing Crescent
Dec 9
First Quarter
Dec 17
Full
Dec 25
Last Quarter
Jan 1
New

Hourly Weather History & Observations

Time (MST) Temp. Windchill Dew Point Humidity Pressure Visibility Wind Dir Wind Speed Gust Speed Precip Events Conditions
12:15 AM 8.6 °F -11.0 °F 3.2 °F 79% 29.74 in 5.0 mi North 20.7 mph 26.5 mph N/A Snow Light Snow
12:35 AM 8.6 °F -8.9 °F 3.2 °F 79% 29.74 in 4.0 mi NNW 16.1 mph 27.6 mph N/A Snow Light Snow
12:55 AM 8.6 °F -8.9 °F 3.2 °F 79% 29.73 in 2.5 mi North 16.1 mph 26.5 mph N/A Snow Light Snow
1:15 AM 6.8 °F -12.4 °F 3.2 °F 85% 29.72 in 2.0 mi North 18.4 mph 23.0 mph N/A Snow Light Snow
1:35 AM 6.8 °F -11.8 °F 3.2 °F 85% 29.74 in 2.5 mi NNW 17.3 mph 23.0 mph N/A Snow Light Snow
1:55 AM 5.0 °F - 1.4 °F 85% 29.74 in 2.0 mi North - - N/A Snow Light Snow
2:15 AM 5.0 °F - 1.4 °F 85% 29.75 in 3.0 mi North - - N/A Snow Light Snow
2:35 AM 5.0 °F - 1.4 °F 85% 29.74 in 2.0 mi North - - N/A Snow Light Snow
2:55 AM 5.0 °F - 1.4 °F 85% 29.73 in 2.5 mi North - - N/A Snow Light Snow
3:15 AM 5.0 °F - 1.4 °F 85% 29.71 in 1.8 mi North - - N/A Snow Light Snow
3:35 AM 5.0 °F - 1.4 °F 85% 29.72 in 1.5 mi North - - N/A Snow Light Snow
3:55 AM 5.0 °F - -0.4 °F 78% 29.74 in 2.0 mi North - - N/A Snow Light Snow
4:15 AM 5.0 °F - -0.4 °F 78% 29.76 in 3.0 mi North - - N/A Snow Light Snow
4:35 AM 5.0 °F - -0.4 °F 78% 29.73 in 1.2 mi North - - N/A Snow Light Snow
4:55 AM 5.0 °F - -0.4 °F 78% 29.71 in 1.5 mi North - - N/A Snow Light Snow
5:15 AM 3.2 °F - -0.4 °F 85% 29.73 in 1.0 mi North - - N/A Snow Light Snow
5:35 AM 3.2 °F - -0.4 °F 85% 29.73 in 2.0 mi North - - N/A Snow Light Snow
5:55 AM 3.2 °F - -0.4 °F 85% 29.71 in 5.0 mi North - - N/A Snow Light Snow
6:15 AM 3.2 °F - -0.4 °F 85% 29.71 in 4.0 mi North - - N/A Snow Light Snow
6:35 AM 3.2 °F - -2.2 °F 78% 29.74 in 4.0 mi North - - N/A Snow Light Snow
6:55 AM 3.2 °F - -2.2 °F 78% 29.74 in 4.0 mi North - - N/A Snow Light Snow
7:15 AM 3.2 °F - -2.2 °F 78% 29.75 in 2.5 mi North - - N/A Snow Light Snow
7:35 AM 3.2 °F - -2.2 °F 78% 29.75 in 1.2 mi North - - N/A Snow Light Snow
7:55 AM 3.2 °F - -0.4 °F 85% 29.76 in 3.0 mi North - - N/A   Overcast
8:15 AM 3.2 °F - -0.4 °F 85% 29.74 in 2.5 mi North - - N/A Snow Light Snow
8:35 AM 3.2 °F - -2.2 °F 78% 29.77 in 1.5 mi North - - N/A Snow Light Snow
8:55 AM 3.2 °F - -2.2 °F 78% 29.77 in 1.5 mi North - - N/A Snow Light Snow
9:15 AM 3.2 °F - -2.2 °F 78% 29.76 in 2.5 mi North - - N/A   Haze
9:35 AM 3.2 °F - -0.4 °F 85% 29.76 in 1.8 mi North - - N/A Snow Light Snow
9:55 AM 3.2 °F - -0.4 °F 85% 29.79 in 1.2 mi North - - N/A Snow Light Snow
10:15 AM 3.2 °F - -2.2 °F 78% 29.80 in 1.5 mi North - - N/A   Haze
10:35 AM 3.2 °F - -0.4 °F 85% 29.77 in 2.0 mi North - - N/A   Haze
10:55 AM 3.2 °F - -2.2 °F 78% 29.81 in 3.0 mi North - - N/A   Haze
11:15 AM 3.2 °F - -2.2 °F 78% 29.80 in 2.5 mi North - - N/A   Haze
11:35 AM 3.2 °F - -2.2 °F 78% 29.79 in 2.0 mi North - - N/A   Haze
11:55 AM 3.2 °F - -2.2 °F 78% 29.78 in 1.0 mi North - - N/A   Haze
12:15 PM 3.2 °F - -0.4 °F 85% 29.81 in 1.5 mi North - - N/A   Haze
12:35 PM 3.2 °F - -4.0 °F 72% 29.79 in 2.5 mi North - - N/A   Haze
12:55 PM 3.2 °F - -2.2 °F 78% 29.82 in 5.0 mi North - - N/A   Haze
1:15 PM 5.0 °F - -2.2 °F 72% 29.82 in 7.0 mi North - - N/A   Overcast
1:35 PM 3.2 °F - -2.2 °F 78% 29.81 in 5.0 mi North - - N/A   Haze
1:55 PM 3.2 °F - -0.4 °F 85% 29.80 in 3.0 mi North - - N/A   Haze
2:15 PM 3.2 °F - -2.2 °F 78% 29.84 in 4.0 mi North - - N/A Snow Light Snow
2:35 PM 3.2 °F - -2.2 °F 78% 29.83 in 10.0 mi North - - N/A   Overcast
2:55 PM 3.2 °F - -4.0 °F 72% 29.82 in 10.0 mi North - - N/A   Scattered Clouds
3:15 PM 3.2 °F -18.6 °F -4.0 °F 72% 29.86 in 10.0 mi NNW 21.9 mph 29.9 mph N/A   Clear
3:35 PM 1.4 °F - -4.0 °F 78% 29.87 in 10.0 mi North - - N/A   Clear
3:55 PM 1.4 °F - -4.0 °F 78% 29.87 in 10.0 mi North - - N/A   Clear
4:15 PM 1.4 °F - -5.8 °F 72% 29.88 in 10.0 mi North - - N/A   Clear
4:35 PM -0.4 °F - -5.8 °F 78% 29.88 in 10.0 mi North - - N/A   Clear
4:55 PM -0.4 °F - -5.8 °F 78% 29.88 in 10.0 mi North - - N/A   Clear
5:15 PM -2.2 °F - -7.6 °F 78% 29.91 in 10.0 mi North - - N/A   Clear
5:35 PM -2.2 °F - -7.6 °F 78% 29.91 in 10.0 mi North - - N/A   Clear
5:55 PM -2.2 °F - -7.6 °F 78% 29.92 in 10.0 mi North - - N/A   Clear
6:15 PM -4.0 °F - -9.4 °F 78% 29.94 in 10.0 mi North - - N/A   Clear
6:35 PM -4.0 °F - -9.4 °F 78% 29.94 in 10.0 mi North - - N/A   Clear
6:55 PM -4.0 °F - -9.4 °F 78% 29.95 in 10.0 mi North - - N/A   Clear
7:15 PM -4.0 °F - -9.4 °F 78% 29.95 in 10.0 mi North - - N/A   Scattered Clouds
7:35 PM -4.0 °F - -9.4 °F 78% 29.96 in 10.0 mi North - - N/A   Scattered Clouds
7:55 PM -4.0 °F - -9.4 °F 78% 29.98 in 10.0 mi North - - N/A   Clear
8:15 PM -4.0 °F - -9.4 °F 78% 29.98 in 10.0 mi North - - N/A   Clear
8:35 PM -5.8 °F - -11.2 °F 77% 29.98 in 10.0 mi North - - N/A   Clear
8:55 PM -5.8 °F - -11.2 °F 77% 29.99 in 10.0 mi North - - N/A   Clear
9:15 PM -5.8 °F - -11.2 °F 77% 29.99 in 10.0 mi North - - N/A   Clear
9:35 PM -7.6 °F - -13.0 °F 77% 29.99 in 10.0 mi North - - N/A   Clear
9:55 PM -5.8 °F - -13.0 °F 71% 30.00 in 10.0 mi North - - N/A   Clear
10:15 PM -5.8 °F - -13.0 °F 71% 30.00 in 10.0 mi North - - N/A   Clear
10:35 PM -5.8 °F - -13.0 °F 71% 30.01 in 10.0 mi North - - N/A   Clear
10:55 PM -7.6 °F - -13.0 °F 77% 30.01 in 10.0 mi North - - N/A   Clear
11:15 PM -5.8 °F - -13.0 °F 71% 30.02 in 10.0 mi North - - N/A   Clear
11:35 PM -7.6 °F - -13.0 °F 77% 30.01 in 10.0 mi North - - N/A   Clear
11:55 PM -7.6 °F - -13.0 °F 77% 30.02 in 10.0 mi North - - N/A   Clear